[[{"header":{"parameterUnit":"m.s-1","parameterCategory":1,"la1":30.2991,"la2":30.254,"lo1":-89.0895,"lo2":-89.0444,"dy":0.0017,"dx":0.0017,"nx":28,"ny":28,"refTime":"2023-10-13T09:00:00:Z","depth":0,"parameterNumber":2,"parameterNumberName":"U-component_of_WINDS"},"data":[0,0,0,0,0,0,0,0,0,0,0,0,0,0,0,0,0,0,0,0,0,0,0,0,0,0,0,0,0,0,0,0,0,0,0,0,0,0,0,0,0,0,0,0,0,0,0,0,0,0,0,0,0,0,0,0,0,0,-2.1783,-2.1783,0,-2.1787,-2.1787,-2.1787,-2.1733,-2.1731,-2.173,-2.1729,-2.1732,-2.1734,-2.1735,0,0,0,0,0,0,0,0,0,0,0,0,0,-2.1729,-2.173,-2.1783,-2.1783,-2.1783,-2.1787,-2.1787,-2.1787,-2.1733,-2.1731,-2.173,-2.1728,-2.1732,-2.1733,-2.1735,0,0,0,0,0,0,0,0,0,0,0,0,0,-2.1744,-2.173,-2.1783,-2.1757,-2.1754,-2.1787,-2.1787,-2.1787,-2.1734,-2.1731,-2.1729,-2.1727,-2.1731,-2.1733,-2.1735,-2.1793,0,0,-2.1742,-2.1743,0,0,0,0,0,0,0,0,-2.1743,-2.1746,-2.176,-2.1758,-2.1756,-2.1757,-2.1769,-2.1789,-2.1734,-2.1741,-2.1729,-2.1726,-2.1742,-2.1743,-2.1749,-2.1793,-2.1793,-2.1742,-2.1744,-2.1745,-2.1745,0,0,0,0,0,0,0,-2.1742,-2.1746,-2.1784,-2.1761,-2.1758,-2.1745,-2.1744,-2.1772,-2.1754,-2.1741,-2.1737,-2.1738,-2.1741,-2.1747,-2.1749,-2.1793,-2.1742,-2.1744,-2.1745,-2.1746,-2.1884,-2.1887,0,0,0,0,0,0,-2.1745,-2.1745,-2.1784,-2.1784,-2.1744,-2.1747,-2.1747,-2.1759,-2.1754,-2.1751,-2.174,-2.1735,-2.1744,-2.1746,-2.1748,-2.1815,-2.1745,-2.1747,-2.1748,-2.1882,-2.1885,-2.1887,0,0,0,0,0,0,-2.1744,-2.1749,-2.1784,-2.1764,-2.1767,-2.1751,-2.1764,-2.176,-2.1766,-2.1753,-2.1749,-2.175,-2.1743,-2.1745,-2.1782,-2.1815,-2.1748,-2.175,-2.1879,-2.1883,-2.1886,-2.195,0,0,0,0,0,0,-2.1743,-2.1749,-2.1771,-2.1765,-2.1768,-2.1818,-2.1766,-2.1762,-2.177,-2.1765,-2.1761,-2.1759,-2.1741,-2.1779,-2.1784,-2.1817,-2.1751,-2.1876,-2.1881,-2.1885,-2.1945,-2.1955,-2.1964,0,0,0,0,0,-2.1741,-2.1788,-2.1772,-2.1777,-2.1795,-2.182,-2.1822,-2.1801,-2.1773,-2.1795,-2.1786,-2.1759,-2.181,-2.1783,-2.1789,-2.1822,-2.1874,-2.1879,-2.1885,-2.1941,-2.1953,-2.1964,0,0,0,0,0,0,-2.1799,-2.1787,-2.1769,-2.1816,-2.1819,-2.1811,-2.1838,-2.1815,-2.1826,-2.1821,-2.1794,-2.1793,-2.1835,-2.1832,-2.1802,-2.1877,-2.1837,-2.1844,-2.1878,-2.189,-2.1899,-2.1899,-2.1753,0,0,0,0,0,-2.1817,-2.1838,-2.1827,-2.1869,-2.1872,-2.1855,-2.1864,-2.1848,-2.185,-2.1851,-2.1845,-2.1849,-2.1866,-2.1877,-2.1892,-2.1944,-2.1942,-2.1969,-2.1979,-2.1987,-2.1993,-2.2021,-2.2033,-2.1905,-2.1905,-2.1905,0,0,-2.1855,-2.1851,-2.1866,-2.1881,-2.1881,-2.1904,-2.1856,-2.1882,-2.1898,-2.1855,-2.189,-2.1886,-2.1887,-2.1932,-2.1951,-2.1931,-2.2028,-2.1994,-2.2,-2.2002,-2.2027,-2.204,-2.205,-2.1908,-2.1908,-2.1907,0,0,-2.1935,-2.1934,-2.197,-2.1972,-2.1973,-2.1961,-2.197,-2.1965,-2.1961,-2.1995,-2.1963,-2.1982,-2.2012,-2.2014,-2.202,-2.2101,-2.2076,-2.2106,-2.2157,-2.2184,-2.2194,-2.2203,-2.2233,-2.2244,-2.2113,-2.2113,-2.2113,0,-2.1982,-2.2015,-2.1991,-2.2019,-2.2026,-2.1988,-2.2024,-2.2027,-2.2033,-2.2039,-2.2016,-2.2053,-2.2051,-2.2096,-2.2116,-2.2122,-2.2131,-2.2107,-2.2195,-2.2203,-2.2211,-2.2239,-2.225,-2.2116,-2.2116,-2.2116,-2.2115,0,-2.2072,-2.2095,-2.2124,-2.2131,-2.2142,-2.2174,-2.2155,-2.2168,-2.215,-2.2141,-2.2176,-2.2173,-2.2187,-2.2196,-2.2179,-2.2239,-2.2226,-2.2199,-2.2159,-2.2228,-2.2253,-2.2264,-2.2122,-2.212,-2.2119,-2.2118,0,0,-2.219,-2.2184,-2.2195,-2.2198,-2.2197,-2.2214,-2.2244,-2.2257,-2.227,-2.2275,-2.23,-2.2325,-2.2301,-2.2307,-2.229,-2.2313,-2.2379,-2.2283,-2.2283,-2.2302,-2.2445,-2.2466,-2.2478,-2.2362,-2.2364,-2.2365,-2.2445,0,-2.2269,-2.232,-2.2299,-2.2352,-2.2373,-2.2337,-2.2363,-2.2366,-2.2358,-2.2374,-2.2365,-2.2384,-2.2349,-2.2353,-2.2375,-2.2366,-2.2407,-2.236,-2.2385,-2.2386,-2.2386,-2.2492,-2.2514,-2.2589,-2.2455,-2.2456,-2.2458,0,-2.2367,-2.2378,-2.2433,-2.2428,-2.2436,-2.246,-2.2471,-2.2487,-2.2489,-2.2481,-2.2488,-2.2465,-2.2494,-2.2453,-2.2493,-2.2461,-2.247,-2.2467,-2.247,-2.2472,-2.2427,-2.2497,-2.2612,-2.2624,-2.2473,-2.2472,-2.2471,0,-2.2449,-2.2476,-2.2512,-2.2516,-2.2511,-2.2529,-2.2528,-2.2527,-2.2537,-2.2546,-2.2552,-2.2564,-2.2571,-2.2581,-2.2563,-2.2534,-2.2605,-2.2562,-2.26,-2.2601,-2.2617,-2.2616,-2.2736,-2.2622,-2.2621,-2.2621,-2.2621,0,-2.2539,-2.2575,-2.2549,-2.2571,-2.261,-2.2585,-2.2624,-2.2619,-2.2619,-2.264,-2.2609,-2.2629,-2.2603,-2.2621,-2.2606,-2.2642,-2.2645,-2.264,-2.2636,-2.2643,-2.2644,-2.2649,-2.2643,-2.2624,-2.2624,-2.2623,-2.2622,0,-2.2637,-2.2621,-2.2658,-2.2651,-2.265,-2.2679,-2.2672,-2.2692,-2.2682,-2.2709,-2.2714,-2.2698,-2.2717,-2.2699,-2.2717,-2.2707,-2.2755,-2.2743,-2.2755,-2.2751,-2.279,-2.2787,-2.2918,-2.2934,-2.2809,-2.281,-2.2811,0,-2.2696,-2.2722,-2.2718,-2.273,-2.2731,-2.275,-2.2759,-2.2736,-2.2748,-2.2751,-2.2772,-2.2788,-2.28,-2.2833,-2.2823,-2.2836,-2.2825,-2.287,-2.2827,-2.2833,-2.2826,-2.2825,-2.2828,-2.2879,-2.288,-2.2881,-2.2882,0,-2.2803,-2.2794,-2.2809,-2.2822,-2.2834,-2.2842,-2.2848,-2.286,-2.2836,-2.285,-2.287,-2.2879,-2.2898,-2.2915,-2.2925,-2.2924,-2.29,-2.2896,-2.2905,-2.2913,-2.292,-2.2917,-2.2779,-2.2893,-2.2892,-2.2891,-2.2891,-2.289,-2.2884,-2.2906,-2.2906,-2.2924,-2.2926,-2.2932,-2.2952,-2.2943,-2.2959,-2.2973,-2.2958,-2.2982,-2.2983,-2.2994,-2.2996,-2.3014,-2.2995,-2.3009,-2.3012,-2.3016,-2.3022,-2.2916,-2.3016,-2.3015,-2.3015,-2.3015,-2.3015,0,-2.299,-2.2988,-2.3005,-2.3015,-2.3029,-2.3004,-2.301,-2.3023,-2.3044,-2.3047,-2.306,-2.3082,-2.3099,-2.309,-2.3104,-2.312,-2.3109,-2.3125,-2.3123,-2.3124,-2.3038,-2.3029,-2.3133,-2.3133,-2.3133,-2.3133,-2.3133,-2.3133,-2.3047,-2.3083,-2.3074,-2.311,-2.3108,-2.3131,-2.3137,-2.3143,-2.3145,-2.3171,-2.3185,-2.3179,-2.3177,-2.319,-2.3204,-2.3201,-2.3208,-2.3228,-2.3221,-2.3141,-2.313,-2.3119,-2.311,-2.3229,-2.3229,-2.3305,-2.3305,-2.3306]},{"header":{"parameterUnit":"m.s-1","parameterCategory":1,"la1":30.2991,"la2":30.254,"lo1":-89.0895,"lo2":-89.0444,"dy":0.0017,"dx":0.0017,"nx":28,"ny":28,"refTime":"2023-10-13T09:00:00:Z","depth":0,"parameterNumber":3,"parameterNumberName":"V-component_of_WINDS"},"data":[0,0,0,0,0,0,0,0,0,0,0,0,0,0,0,0,0,0,0,0,0,0,0,0,0,0,0,0,0,0,0,0,0,0,0,0,0,0,0,0,0,0,0,0,0,0,0,0,0,0,0,0,0,0,0,0,0,0,-1.6011,-1.6011,0,-1.6032,-1.6032,-1.6033,-1.6004,-1.6003,-1.6002,-1.6001,-1.6023,-1.6025,-1.6027,0,0,0,0,0,0,0,0,0,0,0,0,0,-1.5946,-1.5947,-1.6011,-1.6011,-1.6012,-1.6032,-1.6032,-1.6033,-1.6004,-1.6003,-1.6001,-1.6,-1.6023,-1.6025,-1.6027,0,0,0,0,0,0,0,0,0,0,0,0,0,-1.5972,-1.5948,-1.6011,-1.6,-1.5999,-1.6032,-1.6032,-1.6033,-1.6004,-1.6003,-1.6001,-1.6,-1.6022,-1.6025,-1.6027,-1.6073,0,0,-1.6034,-1.6035,0,0,0,0,0,0,0,0,-1.597,-1.5974,-1.6001,-1.6,-1.6,-1.6014,-1.6018,-1.6046,-1.6005,-1.6002,-1.6001,-1.5999,-1.6022,-1.6024,-1.6031,-1.6074,-1.6075,-1.6034,-1.6036,-1.6037,-1.6038,0,0,0,0,0,0,0,-1.5968,-1.5973,-1.6019,-1.6001,-1.6001,-1.5994,-1.5996,-1.6023,-1.602,-1.6002,-1.6,-1.6003,-1.6021,-1.6029,-1.6032,-1.6075,-1.6034,-1.6036,-1.6038,-1.6039,-1.6157,-1.6158,0,0,0,0,0,0,-1.5968,-1.5972,-1.6019,-1.602,-1.5981,-1.5996,-1.5998,-1.6011,-1.602,-1.602,-1.6004,-1.6002,-1.6026,-1.6029,-1.6032,-1.6087,-1.6037,-1.6039,-1.604,-1.6155,-1.6157,-1.6159,0,0,0,0,0,0,-1.5967,-1.5972,-1.6018,-1.5995,-1.6,-1.5999,-1.6013,-1.6012,-1.602,-1.6022,-1.6021,-1.6013,-1.6025,-1.6029,-1.6063,-1.6087,-1.604,-1.6042,-1.6153,-1.6155,-1.6158,-1.6197,0,0,0,0,0,0,-1.5965,-1.5972,-1.5989,-1.5996,-1.6002,-1.6048,-1.6015,-1.6014,-1.6024,-1.6021,-1.603,-1.603,-1.6024,-1.606,-1.6065,-1.609,-1.6044,-1.6151,-1.6154,-1.6157,-1.6193,-1.62,-1.6206,0,0,0,0,0,-1.5963,-1.6,-1.599,-1.5996,-1.6023,-1.605,-1.6053,-1.6045,-1.6026,-1.6044,-1.6045,-1.603,-1.6083,-1.6063,-1.6069,-1.6095,-1.6149,-1.6153,-1.6157,-1.619,-1.6199,-1.6206,0,0,0,0,0,0,-1.5997,-1.6,-1.599,-1.603,-1.604,-1.6045,-1.6067,-1.6054,-1.607,-1.6066,-1.6056,-1.6058,-1.6094,-1.6098,-1.6075,-1.614,-1.6113,-1.6119,-1.6137,-1.6145,-1.6151,-1.615,-1.6046,0,0,0,0,0,-1.6009,-1.6029,-1.6031,-1.6067,-1.6072,-1.6068,-1.608,-1.6072,-1.6082,-1.6086,-1.6089,-1.61,-1.6119,-1.6132,-1.6149,-1.6193,-1.6195,-1.6214,-1.622,-1.6226,-1.6231,-1.6255,-1.6263,-1.6171,-1.6171,-1.6171,0,0,-1.6034,-1.6039,-1.6052,-1.6074,-1.608,-1.6102,-1.6072,-1.6097,-1.6113,-1.609,-1.6122,-1.6125,-1.6136,-1.6175,-1.6192,-1.6179,-1.6256,-1.6231,-1.6235,-1.6237,-1.626,-1.6268,-1.6276,-1.6174,-1.6173,-1.6173,0,0,-1.6092,-1.6097,-1.6127,-1.6134,-1.6144,-1.6142,-1.6149,-1.6155,-1.6156,-1.6188,-1.6172,-1.6191,-1.6224,-1.6232,-1.6241,-1.6301,-1.6288,-1.6307,-1.6342,-1.6365,-1.6373,-1.6379,-1.6401,-1.641,-1.6312,-1.6312,-1.6312,0,-1.6122,-1.6155,-1.6144,-1.617,-1.618,-1.6159,-1.619,-1.6198,-1.6213,-1.6221,-1.6205,-1.6247,-1.6252,-1.6293,-1.6308,-1.6315,-1.6324,-1.6307,-1.6372,-1.6379,-1.6384,-1.6406,-1.6414,-1.6314,-1.6314,-1.6314,-1.6314,0,-1.6192,-1.6215,-1.6238,-1.6253,-1.6266,-1.6294,-1.6288,-1.6302,-1.6293,-1.6292,-1.6325,-1.6331,-1.635,-1.6359,-1.6351,-1.6399,-1.6391,-1.6374,-1.6347,-1.6396,-1.6416,-1.6424,-1.6318,-1.6317,-1.6316,-1.6316,0,0,-1.6273,-1.6282,-1.6291,-1.6298,-1.6307,-1.6324,-1.6351,-1.6369,-1.6382,-1.6393,-1.6416,-1.6444,-1.6428,-1.6438,-1.6431,-1.6451,-1.65,-1.6432,-1.6432,-1.6445,-1.6554,-1.6567,-1.6577,-1.649,-1.6492,-1.6493,-1.6553,0,-1.6332,-1.6379,-1.637,-1.6416,-1.6437,-1.6417,-1.6441,-1.6449,-1.6449,-1.6467,-1.6466,-1.6487,-1.6464,-1.647,-1.6489,-1.649,-1.6521,-1.6485,-1.6512,-1.6514,-1.6512,-1.6587,-1.6601,-1.6658,-1.6561,-1.6562,-1.6563,0,-1.6407,-1.642,-1.6468,-1.6474,-1.6483,-1.6504,-1.652,-1.6537,-1.6546,-1.6544,-1.6555,-1.6544,-1.6571,-1.6543,-1.658,-1.6556,-1.6566,-1.6568,-1.657,-1.6574,-1.6542,-1.6594,-1.6676,-1.6685,-1.6575,-1.6574,-1.6573,0,-1.6463,-1.6493,-1.6526,-1.6532,-1.6539,-1.6555,-1.6559,-1.6566,-1.6577,-1.6591,-1.6598,-1.6615,-1.6625,-1.6638,-1.6632,-1.6611,-1.6671,-1.6642,-1.6671,-1.6671,-1.6686,-1.6685,-1.6772,-1.669,-1.669,-1.669,-1.669,0,-1.653,-1.656,-1.6551,-1.6571,-1.6605,-1.6594,-1.6627,-1.6629,-1.6635,-1.6656,-1.6639,-1.6659,-1.6649,-1.6668,-1.6663,-1.6695,-1.6699,-1.6699,-1.6698,-1.6701,-1.6702,-1.6709,-1.6706,-1.6692,-1.6692,-1.6691,-1.6691,0,-1.6599,-1.6593,-1.6628,-1.6632,-1.6633,-1.6658,-1.6661,-1.6681,-1.6678,-1.6704,-1.671,-1.6707,-1.6728,-1.6722,-1.6746,-1.6742,-1.6784,-1.6777,-1.6781,-1.678,-1.681,-1.6807,-1.6905,-1.6918,-1.6827,-1.6828,-1.6829,0,-1.6643,-1.6665,-1.6672,-1.6684,-1.6689,-1.6709,-1.672,-1.671,-1.6723,-1.6735,-1.6753,-1.6772,-1.6788,-1.6823,-1.6823,-1.684,-1.6834,-1.6867,-1.6837,-1.684,-1.6836,-1.6836,-1.6838,-1.6874,-1.6875,-1.6876,-1.6877,0,-1.6722,-1.6718,-1.6735,-1.6751,-1.6765,-1.6777,-1.6787,-1.6799,-1.6789,-1.6804,-1.6826,-1.6838,-1.6861,-1.6881,-1.6897,-1.6901,-1.6888,-1.6886,-1.6894,-1.6899,-1.6901,-1.6901,-1.6799,-1.6884,-1.6883,-1.6883,-1.6882,-1.6882,-1.678,-1.68,-1.6807,-1.6827,-1.6833,-1.6844,-1.6862,-1.6862,-1.6879,-1.6897,-1.689,-1.6915,-1.6923,-1.6943,-1.6949,-1.6969,-1.6956,-1.6967,-1.6971,-1.6974,-1.6978,-1.6896,-1.6971,-1.6971,-1.6971,-1.6971,-1.6971,0,-1.6859,-1.6863,-1.6881,-1.6896,-1.6911,-1.6896,-1.6907,-1.6921,-1.6943,-1.6951,-1.6967,-1.6991,-1.7011,-1.7012,-1.703,-1.7045,-1.7039,-1.705,-1.705,-1.7051,-1.6988,-1.698,-1.7055,-1.7055,-1.7055,-1.7055,-1.7055,-1.7055,-1.6902,-1.6935,-1.6932,-1.6968,-1.6971,-1.6995,-1.7002,-1.7012,-1.7019,-1.7047,-1.7063,-1.7063,-1.7069,-1.7087,-1.7104,-1.7103,-1.7111,-1.7125,-1.7123,-1.7064,-1.7056,-1.7048,-1.704,-1.7127,-1.7127,-1.7185,-1.7185,-1.7186]}]]